Regional Weather Roundup
Issued by NWS

Home | Current Version | Previous Version | Graphics & Text | Print | Product List | Glossary On
Versions: 1 2 3 4 5 6 7 8 9 10 11 12 13 14 15 16 17 18 19 20 21 22 23 24 25 26 27 28 29 30 31 32 33 34 35 36 37 38 39 40 41 42 43 44 45 46 47 48 49 50
000
ASUS45 KABQ 191501
RWRNM
WEATHER ROUNDUP FOR NEW MEXICO
NATIONAL WEATHER SERVICE ALBUQUERQUE NM
900 AM MDT SAT APR 19 2014

NOTE: "FAIR" MEANS FEW OR NO CLOUDS BELOW 12,000 FEET AGL WITH NO
       SIGNIFICANT WEATHER OR OBSTRUCTIONS TO VISION.

      THIS PRODUCT IS RELEASED AS TWO VERSIONS.  ONE VERSION NEAR
      THE TOP OF THE HOUR CONTAINING PRELIMINARY DATA FROM ALBUQUERQUE
      AND OTHER STATIONS.  A FINAL VERSION WITH ADDITIONAL DATA IS
      ISSUED ABOUT 10 MINUTES AFTER THE HOUR.

NMZ501-503-504-510>518-191600-
NORTHWEST PLATEAU/NORTHCENTRAL MOUNTAINS

CITY           SKY/WX    TMP DP  RH WIND       PRES   REMARKS
FARMINGTON     MOSUNNY   53  44  71 E8        30.12F
SANTA FE       SUNNY     54  40  59 CALM      30.15F
TAOS           SUNNY     52  37  58 CALM      30.22F

$$
NMZ402-403-502-505>509-191600-
WESTCENTRAL MOUNTAINS/SOUTHWEST MOUNTAINS

CITY           SKY/WX    TMP DP  RH WIND       PRES   REMARKS
GALLUP         MOSUNNY   48  35  60 E6        30.16S
SILVER CITY    RAIN      48  46  93 NE6       30.19S

$$
NMZ407-409-411-412-191600-
SOUTHERN DESERTS

CITY           SKY/WX    TMP DP  RH WIND       PRES   REMARKS
DEMING         LGT RAIN  53  49  86 W12       30.14R
HOLLOMAN AFB   CLOUDY    62  50  64 NE8       30.06F
T OR C         CLOUDY    54  45  71 W17G23    30.14R

$$
NMZ519>523-191600-
CENTRAL VALLEYS/CENTRAL HIGHLANDS

CITY           SKY/WX    TMP DP  RH WIND       PRES   REMARKS
ALBUQUERQUE    PTSUNNY   58  40  51 NE3       30.13S
DOUBLE EAGLE   PTSUNNY   55  37  50 N6        30.15S
CLINES CORNERS SUNNY     54  38  54 W3        30.16F
BELEN          DRIZZLE   50  42  73 SW8       30.18R
SOCORRO        NOT AVBL

$$
NMZ524>526-539-540-191600-
SOUTHCENTRAL MOUNTAINS

CITY           SKY/WX    TMP DP  RH WIND       PRES   REMARKS
RUIDOSO        NOT AVBL

$$
NMZ527>531-191600-
NORTHEAST HIGHLANDS/NORTHEAST PLAINS

CITY           SKY/WX    TMP DP  RH WIND       PRES   REMARKS
LAS VEGAS      SUNNY     54  37  52 S14       30.16S
RATON          MOSUNNY   53  39  59 S5        30.10S
CLAYTON        MOSUNNY   62  41  46 SW16G24   30.07S

$$
NMZ532>537-191600-
EASTCENTRAL PLAINS

CITY           SKY/WX    TMP DP  RH WIND       PRES   REMARKS
TUCUMCARI      CLOUDY    64  45  49 NW13      30.01F
CANNON AFB     CLOUDY    60  47  61 SE13      30.09F
CLOVIS AIRPORT PTSUNNY   59  45  58 S17       30.13S

$$
NMZ028-029-538-191600-
SOUTHEAST PLAINS

CITY           SKY/WX    TMP DP  RH WIND       PRES   REMARKS
ROSWELL        PTSUNNY   62  50  64 S13       30.08R
CARLSBAD       CLOUDY    59  54  83 N5        30.06F
HOBBS          MOSUNNY   59  48  67 SE13G18   30.10S


$$



USA.gov is the U.S. government's official web portal to all federal, state and local government web resources and services.